Home > Weather > Erftstadt > Past weeks

Flag for Germany Past Weather in Erftstadt, North Rhine-Westphalia, Germany — Yesterday and Last 2 Weeks

Now
66 °F

Passing clouds.


Feels Like: 66 °F
Forecast: 58 / 67 °F
Wind: 3 mph from North

Location: Noervenich

Current Time: Jun 25, 2016 at 1:50:38 AM

Latest Report: Jun 25, 2016 at 12:20 AM


Visibility: N/A

Pressure: 30.07 "Hg

Humidity: 88%

Dew Point: 63 °F

Location of ErftstadtLocation

Past Weather in Erftstadt — Graph

°F

Erftstadt Temperature Yesterday

Maximum temperature yesterday: 75 °F (at 5:20 PM)
Minimum temperature yesterday: 64 °F (at 5:20 AM)
Average temperature yesterday: 70 °F

High & Low Weather Summary for the Past Weeks

 TemperatureHumidityPressure
High91 °F (Jun 23, 2:20 PM)100% (Jun 16, 11:20 PM)30.27 "Hg (Jun 16, 11:20 PM)
Low48 °F (Jun 16, 4:20 AM)40% (Jun 10, 4:20 PM)29.47 "Hg (Jun 14, 5:20 PM)
Average63 °F78%29.88 "Hg
* Reported Jun 10 12:20 AM — Jun 25 12:20 AM, Erftstadt, Weather by CustomWeather, © 2016

Note: Actual official high and low records may vary slightly from our data, if they occured in-between our weather recording intervals... More about our weather records

Advertising

Erftstadt Weather History for the Previous 24 Hours

Scroll right to see more
 ConditionsComfort  
Time TempWeatherWind HumidityBarometerVisibility
12:20 AM
Sat, Jun 25
66 °FPassing clouds.3 mph88%30.07 "HgN/A
11:20 PM
Fri, Jun 24
68 °FPassing clouds.5 mph88%30.07 "HgN/A
10:20 PM68 °FScattered clouds.3 mph88%30.07 "HgN/A
9:20 PM70 °FScattered clouds.5 mph78%30.07 "HgN/A
8:20 PM73 °FScattered clouds.5 mph74%30.07 "HgN/A
7:20 PM73 °FScattered clouds.7 mph74%30.04 "HgN/A
6:20 PM75 °FScattered clouds.7 mph69%30.07 "HgN/A
5:20 PM75 °FScattered clouds.8 mph69%30.07 "HgN/A
4:20 PM73 °FScattered clouds.7 mph74%30.07 "HgN/A
3:20 PM72 °FBroken clouds.9 mph83%30.07 "HgN/A
2:20 PM73 °FBroken clouds.8 mph83%30.07 "HgN/A
1:20 PM73 °FPartly sunny.8 mph78%30.07 "HgN/A
12:20 PM73 °FPartly sunny.12 mph83%30.07 "HgN/A
12:03 PM72 °FBroken clouds.9 mph83%30.07 "HgN/A
11:20 AM72 °FPartly sunny.8 mph83%30.07 "HgN/A
10:20 AM70 °FPartly sunny.7 mph88%30.07 "HgN/A
9:20 AM72 °FBroken clouds.3 mph83%30.04 "HgN/A
8:20 AM66 °FThundershowers. Partly sunny.1 mph94%30.04 "HgN/A
7:20 AM66 °FSprinkles. Partly sunny.2 mph94%30.01 "HgN/A
6:20 AM66 °FPartly sunny.1 mph94%30.04 "HgN/A
5:20 AM64 °FPassing clouds.2 mph94%30.01 "HgN/A
4:20 AM66 °FPartly cloudy.2 mph94%30.01 "HgN/A
3:20 AM66 °FPassing clouds.2 mph88%30.04 "HgN/A
2:20 AM66 °FThundershowers. Passing clouds.3 mph88%30.04 "HgN/A
1:20 AM68 °FPassing clouds.2 mph88%30.04 "HgN/A
Weather by CustomWeather, © 2016

See weather overviewHow to use our weather pages